This is the latest recevied weather packets stored in our database for station/object LU3HGB-WX. If no packets are shown the sender has not sent any weather packets the latest 10 day(s).
| Time | Temp. | Humidity | Pressure | Rain* | Wind** | Luminosity | Snow |
|---|---|---|---|---|---|---|---|
| 1777302161 | 13.33° C | 38% | 1021 hPa | 0 mm | - | 665 W/m² | - |
| 1777301861 | 13.33° C | 40% | 1021 hPa | 0 mm | - | 655 W/m² | - |
| 1777301559 | 13.33° C | 39% | 1021 hPa | 0 mm | - | 650 W/m² | - |
| 1777301268 | 13.33° C | 43% | 1021 hPa | 0 mm | - | 542 W/m² | - |
| 1777300960 | 12.78° C | 38% | 1021 hPa | 0 mm | - | 641 W/m² | - |
| 1777300661 | 12.78° C | 38% | 1022 hPa | 0 mm | - | 289 W/m² | - |
| 1777300360 | 12.78° C | 40% | 1022 hPa | 0 mm | - | 246 W/m² | - |
| 1777300059 | 12.78° C | 41% | 1022 hPa | 0 mm | - | 598 W/m² | - |
| 1777299760 | 12.78° C | 37% | 1022 hPa | 0 mm | - | 583 W/m² | - |
| 1777299460 | 12.22° C | 41% | 1022 hPa | 0 mm | - | 569 W/m² | - |
| 1777299167 | 11.67° C | 44% | 1022 hPa | 0 mm | - | 571 W/m² | - |
| 1777298863 | 11.67° C | 44% | 1022 hPa | 0 mm | - | 367 W/m² | - |
| 1777298559 | 11.67° C | 43% | 1022 hPa | 0 mm | - | 281 W/m² | - |
| 1777298259 | 11.67° C | 44% | 1022 hPa | 0 mm | - | 374 W/m² | - |
| 1777297959 | 11.67° C | 44% | 1022 hPa | 0 mm | - | 266 W/m² | - |
| 1777297660 | 11.67° C | 43% | 1022 hPa | 0 mm | - | 366 W/m² | - |
| 1777297359 | 11.67° C | 42% | 1022 hPa | 0 mm | - | 301 W/m² | - |
| 1777297059 | 11.11° C | 44% | 1022 hPa | 0 mm | - | 546 W/m² | - |
| 1777296760 | 10.56° C | 45% | 1022 hPa | 0 mm | - | 463 W/m² | - |
| 1777296459 | 10.56° C | 47% | 1022 hPa | 0 mm | - | 508 W/m² | - |
| 1777296159 | 10° C | 47% | 1022 hPa | 0 mm | - | 424 W/m² | - |
| 1777295860 | 10° C | 49% | 1022 hPa | 0 mm | - | 250 W/m² | - |
| 1777295560 | 10° C | 48% | 1022 hPa | 0 mm | - | 278 W/m² | - |
| 1777295260 | 9.44° C | 54% | 1022 hPa | 0 mm | - | 216 W/m² | - |
| 1777294960 | 9.44° C | 50% | 1022 hPa | 0 mm | - | 182 W/m² | - |
* Rain latest hour (hover to see other rain measurements)
** Current wind speed in m/s (hover to see current wind gust speed)